Simultaneous Nadir Overpasses (SNOs) Predictions

Prediction of SNOs between METOP-C and LANDSAT-8 Satellite Orbit:

Table of predicted SNOs for the next 14.0 days since TLE Epoch: 5/27/2023
Index Date (METOP-C) Time (METOP-C) Lat,Lon (METOP-C) SZA (METOP-C ) Date (LANDSAT-8) Time (LANDSAT-8) Lat,Lon (LANDSAT-8) SZA (LANDSAT-8 ) Distance(km) Time Diff (sec)
1 05/28/2023 16:15:47 -81.18, 156.84 118.01 05/28/2023 16:16:00 -81.19, 156.94 117.99 1.88 13
2 05/28/2023 17:06:27 81.19, -35.38 62.05 05/28/2023 17:05:26 81.19, -35.32 62.03 0.95 61
3 05/31/2023 11:50:05 -81.19,-136.49 118.41 05/31/2023 11:50:14 -81.19,-136.54 118.41 1.05 9
4 05/31/2023 12:40:45 81.20, 31.21 61.64 05/31/2023 12:39:40 81.19, 31.17 61.60 0.88 65
5 06/03/2023 07:24:25 -81.18, -70.25 118.82 06/03/2023 07:24:29 -81.19, -70.17 118.80 1.51 4
6 06/03/2023 08:15:05 81.19, 97.36 61.22 06/03/2023 08:13:55 81.19, 97.51 61.21 2.58 70
7 06/06/2023 02:08:04 81.17,-171.40 60.83 06/06/2023 02:09:17 81.17,-171.58 60.84 3.07 73
8 06/06/2023 02:58:45 -81.17, -4.08 119.18 06/06/2023 02:58:44 -81.17, -3.94 119.17 2.35 1
9 06/06/2023 03:49:02 81.35, 172.42 61.98 06/06/2023 03:47:48 81.58, 172.27 62.06 25.69 74
10 06/08/2023 21:42:22 81.17,-104.98 60.55 06/08/2023 21:43:30 81.17,-105.14 60.56 2.64 68



Historial Predications of SNOs between METOP-C and LANDSAT-8
